Weather in Ixia

Greece     36˚26′53″N   28˚13′32″E
temp.,
°C
wind,
m/s
gust,
m/s
humid.,
%
clouds,
%
prec.,
mm/h
press.,
hPa
HPBL,
m
15 january, fri
fri1523:00+14˚nw89610 0.0 10121346
02:00+14˚w78580 0.0 10111352
05:00+14˚ssw57581 0.0 1010663
08:00+15˚wsw8116840 0.9 10101224
11:00+15˚wnw676093 2.6 1012966
14:00+14˚nw567897 3.4 1009820
17:00+14˚ne3376100 0.3 1010515
20:00+15˚nw556158 0.3 1010766
16 january, sat
sat1623:00+14˚nw666020 0.0 1011630
02:00+14˚nw555748 0.0 1010595
05:00+14˚nw5558100 0.0 1008616
08:00+13˚nnw2253100 0.0 1008496
11:00+14˚se3457100 0.0 1008568
14:00+16˚s7866100 0.0 10031224
17:00+16˚w9107184 3.0 10031122
20:00+15˚w12147363 4.5 10041463
17 january, sun
sun1723:00+13˚wnw1011704 0.1 10061314
02:00+13˚nw896938 0.1 1006989
05:00+11˚nw101073100 0.1 10071265
08:00+11˚nw10116481 0.1 10091096
11:00+11˚nw1111650 0.0 1010963
14:00+11˚wnw1111630 0.0 10101213
17:00+12˚wnw1312540 0.0 10121842
20:00+11˚nw1112510 0.0 10141926
18 january, mon
mon1823:00+11˚nw1012540 0.0 10161825
02:00+10˚nw9115018 0.0 10161617
05:00+10˚nw91060100 0.0 10171481
08:00+9˚nnw454567 0.0 10171084
11:00+9˚ene323988 0.0 1017829
14:00+9˚ne444594 0.1 10141362
17:00+8˚ne9977100 0.9 10141002
20:00+9˚n4558100 1.1 1015927
19 january, tue
tue1923:00+10˚nw886254 0.0 10171005
02:00+10˚nw995927 0.0 1017932
05:00+9˚nw88580 0.0 1017903
08:00+8˚nw88570 0.0 1018878
11:00+8˚nw99550 0.0 1018795
14:00+10˚nw109480 0.0 10171083
17:00+11˚nw1110460 0.0 10181284
20:00+9˚nnw77380 0.0 10201011